Time,TemperatureF,DewpointF,PressureIn,WindDirection,WindDirectionDegrees,WindSpeedMPH,WindSpeedGustMPH,Humidity,HourlyPrecipIn,Conditions,Clouds,dailyrainin,SoftwareType,DateUTC
2013-03-29 07:27:00,38.1,37.6,30.31,WNW,293,1.0,1.0,98,0.00,,,0.00,Wunderground v.1.15,2013-03-29 11:27:00,
2013-03-29 07:32:00,37.8,37.0,30.32,WNW,293,0.0,1.0,97,0.00,,,0.00,Wunderground v.1.15,2013-03-29 11:32:00,
2013-03-29 07:37:00,37.1,36.1,30.32,WNW,293,0.0,0.0,96,0.00,,,0.00,Wunderground v.1.15,2013-03-29 11:37:00,
2013-03-29 07:42:00,37.1,36.3,30.32,WNW,293,0.0,0.0,97,0.00,,,0.00,Wunderground v.1.15,2013-03-29 11:42:00,
2013-03-29 07:52:00,37.9,37.1,30.33,WNW,293,1.0,2.0,97,0.00,,,0.00,Wunderground v.1.15,2013-03-29 11:52:00,
2013-03-29 07:57:00,38.7,37.7,30.33,WNW,293,1.0,1.0,96,0.00,,,0.00,Wunderground v.1.15,2013-03-29 11:57:00,
2013-03-29 08:07:00,39.1,37.0,30.33,WNW,293,1.0,1.0,92,0.00,,,0.00,Wunderground v.1.15,2013-03-29 12:07:00,
2013-03-29 08:17:00,39.5,36.2,30.33,WNW,293,1.0,1.0,88,0.00,,,0.00,Wunderground v.1.15,2013-03-29 12:17:00,
2013-03-29 08:22:00,39.8,36.2,30.33,WNW,293,1.0,2.0,87,0.00,,,0.00,Wunderground v.1.15,2013-03-29 12:22:00,
2013-03-29 08:32:00,40.7,37.4,30.34,WNW,293,1.0,1.0,88,0.00,,,0.00,Wunderground v.1.15,2013-03-29 12:32:00,
2013-03-29 08:37:00,41.0,37.4,30.34,WNW,293,1.0,1.0,87,0.00,,,0.00,Wunderground v.1.15,2013-03-29 12:37:00,
2013-03-29 08:42:00,41.5,38.2,30.34,WNW,293,1.0,1.0,88,0.00,,,0.00,Wunderground v.1.15,2013-03-29 12:42:00,
2013-03-29 08:47:00,42.2,38.6,30.34,WNW,293,0.0,1.0,87,0.00,,,0.00,Wunderground v.1.15,2013-03-29 12:47:00,
2013-03-29 08:52:00,43.1,38.9,30.34,WNW,293,0.0,0.0,85,0.00,,,0.00,Wunderground v.1.15,2013-03-29 12:52:00,
2013-03-29 09:02:00,44.7,38.3,30.34,WNW,293,0.0,0.0,78,0.00,,,0.00,Wunderground v.1.15,2013-03-29 13:02:00,
2013-03-29 09:07:00,45.6,38.1,30.34,WNW,293,0.0,0.0,75,0.00,,,0.00,Wunderground v.1.15,2013-03-29 13:07:00,
2013-03-29 09:17:00,47.9,39.3,30.33,WNW,293,0.0,0.0,72,0.00,,,0.00,Wunderground v.1.15,2013-03-29 13:17:00,
2013-03-29 09:22:00,49.1,40.1,30.33,WNW,293,0.0,0.0,71,0.00,,,0.00,Wunderground v.1.15,2013-03-29 13:22:00,
2013-03-29 09:27:00,50.0,40.2,30.33,WNW,293,0.0,0.0,69,0.00,,,0.00,Wunderground v.1.15,2013-03-29 13:27:00,
2013-03-29 09:32:00,50.6,39.3,30.33,ESE,120,0.0,4.0,65,0.00,,,0.00,Wunderground v.1.15,2013-03-29 13:32:00,
2013-03-29 09:37:00,50.1,34.5,30.33,ESE,119,2.0,4.0,55,0.00,,,0.00,Wunderground v.1.15,2013-03-29 13:37:00,
2013-03-29 09:42:00,50.1,37.2,30.33,NE,45,3.0,3.0,61,0.00,,,0.00,Wunderground v.1.15,2013-03-29 13:42:00,
2013-03-29 09:52:00,50.7,35.1,30.34,ESE,116,2.0,2.0,55,0.00,,,0.00,Wunderground v.1.15,2013-03-29 13:52:00,
2013-03-29 09:57:00,51.2,34.2,30.34,ENE,69,2.0,3.0,52,0.00,,,0.00,Wunderground v.1.15,2013-03-29 13:57:00,
2013-03-29 10:02:00,51.6,34.5,30.34,East,92,2.0,2.0,52,0.00,,,0.00,Wunderground v.1.15,2013-03-29 14:02:00,
2013-03-29 10:07:00,52.5,35.4,30.34,ESE,109,2.0,2.0,52,0.00,,,0.00,Wunderground v.1.15,2013-03-29 14:07:00,
2013-03-29 10:17:00,52.8,33.6,30.34,South,182,3.0,3.0,48,0.00,,,0.00,Wunderground v.1.15,2013-03-29 14:17:00,
2013-03-29 10:27:00,53.8,34.0,30.34,ESE,111,2.0,3.0,47,0.00,,,0.00,Wunderground v.1.15,2013-03-29 14:27:00,
2013-03-29 10:32:00,54.7,34.3,30.34,SSE,157,1.0,2.0,46,0.00,,,0.00,Wunderground v.1.15,2013-03-29 14:32:00,
2013-03-29 10:37:00,55.6,35.1,30.34,SSW,211,1.0,2.0,46,0.00,,,0.00,Wunderground v.1.15,2013-03-29 14:37:00,
2013-03-29 10:42:00,55.9,35.4,30.34,South,184,1.0,1.0,46,0.00,,,0.00,Wunderground v.1.15,2013-03-29 14:42:00,
2013-03-29 10:47:00,56.1,35.0,30.34,South,179,1.0,1.0,45,0.00,,,0.00,Wunderground v.1.15,2013-03-29 14:47:00,
2013-03-29 10:52:00,57.2,34.3,30.34,SSE,155,1.0,1.0,42,0.00,,,0.00,Wunderground v.1.15,2013-03-29 14:52:00,
2013-03-29 10:57:00,57.4,35.1,30.34,SW,214,1.0,2.0,43,0.00,,,0.00,Wunderground v.1.15,2013-03-29 14:57:00,
2013-03-29 11:02:00,57.1,36.5,30.34,SW,224,2.0,2.0,46,0.00,,,0.00,Wunderground v.1.15,2013-03-29 15:02:00,
2013-03-29 11:12:00,57.2,32.4,30.34,South,172,2.0,2.0,39,0.00,,,0.00,Wunderground v.1.15,2013-03-29 15:12:00,
2013-03-29 11:17:00,58.2,34.6,30.34,WSW,246,1.0,2.0,41,0.00,,,0.00,Wunderground v.1.15,2013-03-29 15:17:00,
2013-03-29 11:22:00,59.2,32.2,30.34,ESE,113,1.0,3.0,36,0.00,,,0.00,Wunderground v.1.15,2013-03-29 15:22:00,
2013-03-29 11:32:00,60.1,30.1,30.33,South,174,1.0,1.0,32,0.00,,,0.00,Wunderground v.1.15,2013-03-29 15:32:00,
2013-03-29 11:37:00,61.1,29.4,30.33,SSE,148,1.0,1.0,30,0.00,,,0.00,Wunderground v.1.15,2013-03-29 15:37:00,
2013-03-29 11:42:00,61.7,30.7,30.33,NW,310,1.0,1.0,31,0.00,,,0.00,Wunderground v.1.15,2013-03-29 15:42:00,
2013-03-29 11:52:00,61.2,30.3,30.32,WSW,242,2.0,2.0,31,0.00,,,0.00,Wunderground v.1.15,2013-03-29 15:52:00,
2013-03-29 11:57:00,61.7,33.0,30.32,NW,307,1.0,3.0,34,0.00,,,0.00,Wunderground v.1.15,2013-03-29 15:57:00,
2013-03-29 12:07:00,62.2,29.5,30.32,SW,223,2.0,3.0,29,0.00,,,0.00,Wunderground v.1.15,2013-03-29 16:07:00,
2013-03-29 12:17:00,63.9,31.0,30.32,East,79,1.0,2.0,29,0.00,,,0.00,Wunderground v.1.15,2013-03-29 16:17:00,
2013-03-29 12:22:00,63.1,28.5,30.32,ESE,108,2.0,2.0,27,0.00,,,0.00,Wunderground v.1.15,2013-03-29 16:22:00,
2013-03-29 12:32:00,62.5,28.9,30.31,SSE,159,2.0,2.0,28,0.00,,,0.00,Wunderground v.1.15,2013-03-29 16:32:00,
2013-03-29 12:37:00,62.8,30.0,30.31,WNW,292,2.0,2.0,29,0.00,,,0.00,Wunderground v.1.15,2013-03-29 16:37:00,
2013-03-29 12:47:00,63.1,30.3,30.31,West,273,2.0,2.0,29,0.00,,,0.00,Wunderground v.1.15,2013-03-29 16:47:00,
2013-03-29 12:52:00,63.9,30.1,30.31,WNW,288,2.0,2.0,28,0.00,,,0.00,Wunderground v.1.15,2013-03-29 16:52:00,
2013-03-29 13:02:00,65.2,30.3,30.30,SW,224,1.0,1.0,27,0.00,,,0.00,Wunderground v.1.15,2013-03-29 17:02:00,
2013-03-29 13:08:00,64.9,31.0,30.30,ESE,119,2.0,3.0,28,0.00,,,0.00,Wunderground v.1.15,2013-03-29 17:08:00,
2013-03-29 13:17:00,64.9,35.1,30.29,SSW,205,3.0,3.0,33,0.00,,,0.00,Wunderground v.1.15,2013-03-29 17:17:00,
2013-03-29 13:27:00,65.9,30.9,30.29,SE,142,2.0,2.0,27,0.00,,,0.00,Wunderground v.1.15,2013-03-29 17:27:00,
2013-03-29 13:32:00,66.3,32.2,30.28,SE,128,2.0,3.0,28,0.00,,,0.00,Wunderground v.1.15,2013-03-29 17:32:00,
2013-03-29 13:42:00,65.7,31.7,30.28,SE,132,3.0,5.0,28,0.00,,,0.00,Wunderground v.1.15,2013-03-29 17:42:00,
2013-03-29 13:47:00,65.7,30.8,30.27,North,5,3.0,5.0,27,0.00,,,0.00,Wunderground v.1.15,2013-03-29 17:47:00,
2013-03-29 13:52:00,65.9,30.9,30.27,ESE,112,3.0,6.0,27,0.00,,,0.00,Wunderground v.1.15,2013-03-29 17:52:00,
2013-03-29 14:02:00,65.7,33.4,30.26,South,185,4.0,5.0,30,0.00,,,0.00,Wunderground v.1.15,2013-03-29 18:02:00,
2013-03-29 14:07:00,66.0,33.7,30.26,WSW,240,3.0,9.0,30,0.00,,,0.00,Wunderground v.1.15,2013-03-29 18:07:00,
2013-03-29 14:17:00,66.3,31.3,30.26,West,271,5.0,6.0,27,0.00,,,0.00,Wunderground v.1.15,2013-03-29 18:17:00,
2013-03-29 14:22:00,66.8,34.3,30.26,WSW,243,4.0,4.0,30,0.00,,,0.00,Wunderground v.1.15,2013-03-29 18:22:00,
2013-03-29 14:27:00,67.8,33.5,30.26,SW,233,2.0,4.0,28,0.00,,,0.00,Wunderground v.1.15,2013-03-29 18:27:00,
2013-03-29 14:37:00,68.8,35.2,30.24,WSW,244,3.0,3.0,29,0.00,,,0.00,Wunderground v.1.15,2013-03-29 18:37:00,
2013-03-29 14:42:00,68.5,35.0,30.24,SW,227,4.0,5.0,29,0.00,,,0.00,Wunderground v.1.15,2013-03-29 18:42:00,
2013-03-29 14:47:00,67.2,32.1,30.24,SW,227,7.0,9.0,27,0.00,,,0.00,Wunderground v.1.15,2013-03-29 18:47:00,
2013-03-29 14:52:00,66.3,32.2,30.24,South,179,8.0,8.0,28,0.00,,,0.00,Wunderground v.1.15,2013-03-29 18:52:00,
2013-03-29 14:57:00,66.7,31.6,30.24,SSE,161,5.0,8.0,27,0.00,,,0.00,Wunderground v.1.15,2013-03-29 18:57:00,
2013-03-29 15:02:00,66.8,31.7,30.23,South,184,4.0,4.0,27,0.00,,,0.00,Wunderground v.1.15,2013-03-29 19:02:00,
2013-03-29 15:07:00,67.5,31.4,30.23,WNW,297,3.0,4.0,26,0.00,,,0.00,Wunderground v.1.15,2013-03-29 19:07:00,
2013-03-29 15:17:00,68.3,35.6,30.22,SSW,198,4.0,5.0,30,0.00,,,0.00,Wunderground v.1.15,2013-03-29 19:17:00,
2013-03-29 15:22:00,68.3,36.5,30.22,South,175,5.0,7.0,31,0.00,,,0.00,Wunderground v.1.15,2013-03-29 19:22:00,
2013-03-29 15:42:00,68.5,32.2,30.21,SSW,208,4.0,4.0,26,0.00,,,0.00,Wunderground v.1.15,2013-03-29 19:42:00,
2013-03-29 15:47:00,68.3,33.9,30.20,SSW,207,5.0,10.0,28,0.00,,,0.00,Wunderground v.1.15,2013-03-29 19:47:00,
2013-03-29 15:57:00,68.5,35.8,30.20,South,190,6.0,8.0,30,0.00,,,0.00,Wunderground v.1.15,2013-03-29 19:57:00,
2013-03-29 16:02:00,68.5,34.1,30.19,East,96,4.0,4.0,28,0.00,,,0.00,Wunderground v.1.15,2013-03-29 20:02:00,
2013-03-29 16:07:00,69.3,34.8,30.19,South,175,4.0,4.0,28,0.00,,,0.00,Wunderground v.1.15,2013-03-29 20:07:00,
2013-03-29 16:17:00,69.3,34.8,30.19,SW,232,4.0,6.0,28,0.00,,,0.00,Wunderground v.1.15,2013-03-29 20:17:00,
2013-03-29 16:22:00,69.2,36.4,30.19,WSW,246,6.0,11.0,30,0.00,,,0.00,Wunderground v.1.15,2013-03-29 20:22:00,
2013-03-29 16:32:00,69.0,32.7,30.18,WSW,250,6.0,6.0,26,0.00,,,0.00,Wunderground v.1.15,2013-03-29 20:32:00,
2013-03-29 16:37:00,70.0,35.4,30.18,South,179,3.0,6.0,28,0.00,,,0.00,Wunderground v.1.15,2013-03-29 20:37:00,
2013-03-29 16:47:00,70.3,33.8,30.18,WSW,250,4.0,14.0,26,0.00,,,0.00,Wunderground v.1.15,2013-03-29 20:47:00,
2013-03-29 16:52:00,69.8,34.3,30.18,South,179,6.0,11.0,27,0.00,,,0.00,Wunderground v.1.15,2013-03-29 20:52:00,
2013-03-29 16:57:00,69.5,34.0,30.18,West,259,8.0,11.0,27,0.00,,,0.00,Wunderground v.1.15,2013-03-29 20:57:00,
2013-03-29 17:02:00,69.8,35.2,30.17,South,183,5.0,12.0,28,0.00,,,0.00,Wunderground v.1.15,2013-03-29 21:02:00,
2013-03-29 17:07:00,69.5,34.9,30.17,West,277,5.0,12.0,28,0.00,,,0.00,Wunderground v.1.15,2013-03-29 21:07:00,
2013-03-29 17:17:00,70.0,34.5,30.17,NW,304,4.0,5.0,27,0.00,,,0.00,Wunderground v.1.15,2013-03-29 21:17:00,
2013-03-29 17:27:00,70.3,37.4,30.17,WSW,240,5.0,5.0,30,0.00,,,0.00,Wunderground v.1.15,2013-03-29 21:27:00,
2013-03-29 17:32:00,69.8,34.3,30.17,South,190,6.0,8.0,27,0.00,,,0.00,Wunderground v.1.15,2013-03-29 21:32:00,
2013-03-29 17:37:00,70.0,36.3,30.17,WSW,252,7.0,8.0,29,0.00,,,0.00,Wunderground v.1.15,2013-03-29 21:37:00,
2013-03-29 17:42:00,69.8,36.1,30.17,WSW,248,8.0,8.0,29,0.00,,,0.00,Wunderground v.1.15,2013-03-29 21:42:00,
2013-03-29 17:52:00,70.0,36.3,30.17,WSW,252,4.0,10.0,29,0.00,,,0.00,Wunderground v.1.15,2013-03-29 21:52:00,
2013-03-29 18:02:00,69.7,35.1,30.17,WNW,284,4.0,4.0,28,0.00,,,0.00,Wunderground v.1.15,2013-03-29 22:02:00,
2013-03-29 18:07:00,69.5,36.7,30.17,WSW,246,2.0,4.0,30,0.00,,,0.00,Wunderground v.1.15,2013-03-29 22:07:00,
2013-03-29 18:17:00,69.7,36.0,30.17,SW,215,5.0,6.0,29,0.00,,,0.00,Wunderground v.1.15,2013-03-29 22:17:00,
2013-03-29 18:22:00,69.3,33.9,30.17,SSW,207,6.0,6.0,27,0.00,,,0.00,Wunderground v.1.15,2013-03-29 22:22:00,
2013-03-29 18:32:00,68.7,36.0,30.17,South,169,4.0,4.0,30,0.00,,,0.00,Wunderground v.1.15,2013-03-29 22:32:00,
2013-03-29 18:42:00,68.5,35.8,30.17,SSE,159,4.0,4.0,30,0.00,,,0.00,Wunderground v.1.15,2013-03-29 22:42:00,
2013-03-29 18:47:00,68.5,35.0,30.17,South,169,4.0,4.0,29,0.00,,,0.00,Wunderground v.1.15,2013-03-29 22:47:00,
2013-03-29 18:52:00,68.3,36.5,30.17,South,175,3.0,3.0,31,0.00,,,0.00,Wunderground v.1.15,2013-03-29 22:52:00,
2013-03-29 18:57:00,68.2,35.6,30.17,South,189,3.0,5.0,30,0.00,,,0.00,Wunderground v.1.15,2013-03-29 22:57:00,
2013-03-29 19:07:00,68.0,36.2,30.17,South,190,3.0,4.0,31,0.00,,,0.00,Wunderground v.1.15,2013-03-29 23:07:00,
2013-03-29 19:17:00,67.7,37.5,30.17,SSW,213,3.0,3.0,33,0.00,,,0.00,Wunderground v.1.15,2013-03-29 23:17:00,
2013-03-29 19:22:00,67.5,39.6,30.17,SSW,192,2.0,2.0,36,0.00,,,0.00,Wunderground v.1.15,2013-03-29 23:22:00,
2013-03-29 19:27:00,67.2,36.3,30.17,South,174,2.0,2.0,32,0.00,,,0.00,Wunderground v.1.15,2013-03-29 23:27:00,
2013-03-29 19:32:00,67.0,36.1,30.16,South,173,2.0,2.0,32,0.00,,,0.00,Wunderground v.1.15,2013-03-29 23:32:00,
2013-03-29 19:42:00,66.5,38.7,30.16,South,176,2.0,2.0,36,0.00,,,0.00,Wunderground v.1.15,2013-03-29 23:42:00,
2013-03-29 19:47:00,66.3,39.2,30.16,SSE,159,2.0,2.0,37,0.00,,,0.00,Wunderground v.1.15,2013-03-29 23:47:00,
2013-03-29 19:52:00,66.0,39.0,30.16,South,181,2.0,2.0,37,0.00,,,0.00,Wunderground v.1.15,2013-03-29 23:52:00,
2013-03-29 19:57:00,65.7,38.7,30.16,South,180,2.0,2.0,37,0.00,,,0.00,Wunderground v.1.15,2013-03-29 23:57:00,
2013-03-29 20:07:00,65.4,37.7,30.17,SSE,166,2.0,2.0,36,0.00,,,0.00,Wunderground v.1.15,2013-03-30 00:07:00,
2013-03-29 20:17:00,64.9,39.3,30.17,South,187,2.0,4.0,39,0.00,,,0.00,Wunderground v.1.15,2013-03-30 00:17:00,
2013-03-29 20:22:00,64.7,39.2,30.17,South,189,2.0,2.0,39,0.00,,,0.00,Wunderground v.1.15,2013-03-30 00:22:00,
2013-03-29 20:27:00,64.4,39.5,30.17,South,187,2.0,2.0,40,0.00,,,0.00,Wunderground v.1.15,2013-03-30 00:27:00,
2013-03-29 20:32:00,64.1,39.3,30.16,South,186,2.0,2.0,40,0.00,,,0.00,Wunderground v.1.15,2013-03-30 00:32:00,
2013-03-29 20:37:00,63.9,39.1,30.16,South,169,2.0,2.0,40,0.00,,,0.00,Wunderground v.1.15,2013-03-30 00:37:00,
2013-03-29 20:42:00,63.6,40.7,30.16,South,169,2.0,2.0,43,0.00,,,0.00,Wunderground v.1.15,2013-03-30 00:42:00,
2013-03-29 20:47:00,63.4,39.9,30.17,South,189,2.0,2.0,42,0.00,,,0.00,Wunderground v.1.15,2013-03-30 00:47:00,
2013-03-29 20:52:00,63.3,40.4,30.17,SSW,211,2.0,3.0,43,0.00,,,0.00,Wunderground v.1.15,2013-03-30 00:52:00,
2013-03-29 20:57:00,63.3,41.0,30.17,SSW,197,2.0,3.0,44,0.00,,,0.00,Wunderground v.1.15,2013-03-30 00:57:00,
2013-03-29 21:07:00,63.0,39.5,30.17,SSW,192,2.0,2.0,42,0.00,,,0.00,Wunderground v.1.15,2013-03-30 01:07:00,
2013-03-29 21:17:00,62.8,40.0,30.17,South,190,1.0,2.0,43,0.00,,,0.00,Wunderground v.1.15,2013-03-30 01:17:00,
2013-03-29 21:22:00,62.5,40.3,30.17,South,190,1.0,2.0,44,0.00,,,0.00,Wunderground v.1.15,2013-03-30 01:22:00,
2013-03-29 21:27:00,62.2,40.6,30.17,South,190,1.0,2.0,45,0.00,,,0.00,Wunderground v.1.15,2013-03-30 01:27:00,
2013-03-29 21:32:00,62.0,39.8,30.17,South,190,1.0,1.0,44,0.00,,,0.00,Wunderground v.1.15,2013-03-30 01:32:00,
2013-03-29 21:42:00,61.4,39.9,30.17,South,190,0.0,1.0,45,0.00,,,0.00,Wunderground v.1.15,2013-03-30 01:42:00,
2013-03-29 21:47:00,60.9,38.8,30.17,South,190,1.0,1.0,44,0.00,,,0.00,Wunderground v.1.15,2013-03-30 01:47:00,
2013-03-29 21:57:00,60.4,38.9,30.17,South,190,0.0,1.0,45,0.00,,,0.00,Wunderground v.1.15,2013-03-30 01:57:00,
2013-03-29 22:02:00,60.3,38.9,30.18,South,190,1.0,1.0,45,0.00,,,0.00,Wunderground v.1.15,2013-03-30 02:02:00,
2013-03-29 22:07:00,60.0,39.1,30.18,South,190,1.0,1.0,46,0.00,,,0.00,Wunderground v.1.15,2013-03-30 02:07:00,
2013-03-29 22:17:00,59.5,39.2,30.18,South,190,1.0,1.0,47,0.00,,,0.00,Wunderground v.1.15,2013-03-30 02:17:00,
2013-03-29 22:22:00,59.1,40.5,30.18,South,190,1.0,1.0,50,0.00,,,0.00,Wunderground v.1.15,2013-03-30 02:22:00,
2013-03-29 22:32:00,58.8,40.7,30.18,South,190,0.0,0.0,51,0.00,,,0.00,Wunderground v.1.15,2013-03-30 02:32:00,
2013-03-29 22:42:00,58.6,40.5,30.18,South,190,0.0,2.0,51,0.00,,,0.00,Wunderground v.1.15,2013-03-30 02:42:00,
2013-03-29 22:47:00,58.6,40.5,30.18,South,190,1.0,2.0,51,0.00,,,0.00,Wunderground v.1.15,2013-03-30 02:47:00,
2013-03-29 22:52:00,58.5,40.9,30.18,South,190,1.0,1.0,52,0.00,,,0.00,Wunderground v.1.15,2013-03-30 02:52:00,
2013-03-29 22:57:00,58.2,41.6,30.18,South,190,0.0,1.0,54,0.00,,,0.00,Wunderground v.1.15,2013-03-30 02:57:00,
2013-03-29 23:02:00,58.0,41.0,30.18,South,190,0.0,0.0,53,0.00,,,0.00,Wunderground v.1.15,2013-03-30 03:02:00,
2013-03-29 23:07:00,58.0,41.0,30.18,South,190,1.0,1.0,53,0.00,,,0.00,Wunderground v.1.15,2013-03-30 03:07:00,
2013-03-29 23:17:00,57.7,41.2,30.18,South,190,0.0,1.0,54,0.00,,,0.00,Wunderground v.1.15,2013-03-30 03:17:00,
2013-03-29 23:22:00,57.7,41.2,30.18,South,190,0.0,1.0,54,0.00,,,0.00,Wunderground v.1.15,2013-03-30 03:22:00,
2013-03-29 23:27:00,57.7,41.6,30.18,South,190,0.0,1.0,55,0.00,,,0.00,Wunderground v.1.15,2013-03-30 03:27:00,
2013-03-29 23:37:00,57.5,41.9,30.18,South,190,1.0,1.0,56,0.00,,,0.00,Wunderground v.1.15,2013-03-30 03:37:00,
2013-03-29 23:47:00,57.2,41.2,30.17,South,190,1.0,1.0,55,0.00,,,0.00,Wunderground v.1.15,2013-03-30 03:47:00,
2013-03-29 23:52:00,57.2,41.2,30.17,South,190,1.0,1.0,55,0.00,,,0.00,Wunderground v.1.15,2013-03-30 03:52:00,